Afton, Prince Edward Island

3:33 AM AST on January 21, 2018 (GMT -0400)
Afton

Weather History for 71706 - September, 2013

Change the Weather History Date:

Friday, September 27, 2013

  Actual Average Record
Temperature  
Mean Temperature 50 °F -  
Max Temperature 57 °F 55 °F - ()
Min Temperature 44 °F 40 °F - ()
Degree Days  
Heating Degree Days 14    
Moisture  
Dew Point 48 °F    
Average Humidity 84    
Maximum Humidity 94    
Minimum Humidity 55    
Precipitation  
Precipitation 0.00 in 0.14 in - ()
Sea Level Pressure  
Sea Level Pressure 30.11 in    
Wind  
Wind Speed 13 mph ()    
Max Wind Speed 20 mph    
Max Gust Speed 31 mph    
Visibility 15.0 miles    
Events Rain    
T = Trace of Precipitation, MM = Missing Value Source: Averaged Metar Reports

Daily Weather History Graph

Daily Weather History Graph

Search for Another Location

Airport or City:

Trip Planner

Search our weather history database for the weather conditions in past years. The results will help you decide how hot, cold, wet, or windy it might be!

Date:

Astronomy

Sep. 27, 2013 Rise Set
Actual Time 7:06 AM ADT 6:59 PM ADT
Civil Twilight 6:36 AM ADT 7:29 PM ADT
Nautical Twilight 6:01 AM ADT 8:04 PM ADT
Astronomical Twilight 5:25 AM ADT 8:40 PM ADT
Moon No Moon Rise 2:53 PM ADT (9/27)
Length of Visible Light 12h 53m
Length of Day
11h 53m
Last Quarter, 46% of the Moon is Illuminated
Sep 27
Last Quarter
Oct 4
New
Oct 11
First Quarter
Oct 18
Full
Oct 26
Last Quarter

Hourly Weather History & Observations

Time (ADT) Temp. Windchill Dew Point Humidity Pressure Visibility Wind Dir Wind Speed Gust Speed Precip Events Conditions
12:00 AM 53.6 °F - 50.0 °F 88% 29.99 in 15.0 mi North 15.0 mph 27.6 mph N/A   Overcast
1:00 AM 53.6 °F - 50.0 °F 88% 30.00 in 15.0 mi North 15.0 mph 24.2 mph N/A   Overcast
2:00 AM 53.6 °F - 50.0 °F 88% 30.00 in 15.0 mi North 17.3 mph 27.6 mph N/A   Overcast
3:00 AM 54 °F - 50 °F 82% 30.01 in 15 mi North 18.4 mph - -   Partly Cloudy
3:00 AM 53.6 °F - 50.0 °F 88% 30.01 in 15.0 mi North 18.4 mph 26.5 mph N/A   Overcast
4:00 AM 53.6 °F - 50.0 °F 88% 30.01 in 15.0 mi North 17.3 mph 24.2 mph N/A   Overcast
5:00 AM 53.6 °F - 50.0 °F 88% 30.03 in 15.0 mi North 13.8 mph 21.9 mph N/A   Overcast
6:00 AM 53.6 °F - 50.0 °F 88% 30.05 in 15.0 mi NNE 16.1 mph - N/A   Overcast
7:00 AM 51.8 °F - 50.0 °F 94% 30.07 in 15.0 mi North 12.7 mph 19.6 mph N/A   Overcast
8:00 AM 51.8 °F - 48.2 °F 88% 30.09 in 15.0 mi North 19.6 mph - N/A   Overcast
8:35 AM 51.8 °F - 50.0 °F 94% 30.09 in 15.0 mi North 12.7 mph 19.6 mph N/A   Light Drizzle
9:00 AM 52 °F - 49 °F 87% 30.10 in 15 mi North 15.0 mph - - Rain Light Drizzle
9:00 AM 51.8 °F - 50.0 °F 94% 30.10 in 15.0 mi North 13.8 mph 24.2 mph N/A   Light Drizzle
9:44 AM 53.6 °F - 48.2 °F 82% 30.12 in 15.0 mi North 15.0 mph 23.0 mph N/A   Mostly Cloudy
10:00 AM 53.6 °F - 50.0 °F 88% 30.12 in 15.0 mi North 18.4 mph - N/A   Mostly Cloudy
11:00 AM 57.2 °F - 50.0 °F 77% 30.13 in 15.0 mi North 17.3 mph 26.5 mph N/A   Mostly Cloudy
12:00 PM 55.4 °F - 48.2 °F 77% 30.12 in 15.0 mi North 19.6 mph 28.8 mph N/A   Mostly Cloudy
1:00 PM 55.4 °F - 48.2 °F 77% 30.13 in 15.0 mi North 18.4 mph 31.1 mph N/A   Mostly Cloudy
2:00 PM 57.2 °F - 46.4 °F 67% 30.14 in 15.0 mi North 15.0 mph 23.0 mph N/A   Mostly Cloudy
3:00 PM 58 °F - 46 °F 55% 30.14 in 15 mi North 10.4 mph - -   Partly Cloudy
3:00 PM 57.2 °F - 46.4 °F 67% 30.14 in 15.0 mi NNW 11.5 mph 20.7 mph N/A   Mostly Cloudy
4:00 PM 53.6 °F - 46.4 °F 77% 30.15 in 15.0 mi NNW 11.5 mph 19.6 mph N/A   Mostly Cloudy
5:00 PM 53.6 °F - 44.6 °F 72% 30.15 in 15.0 mi North 11.5 mph 21.9 mph N/A   Mostly Cloudy
6:00 PM 51.8 °F - 44.6 °F 76% 30.17 in 15.0 mi North 8.1 mph - N/A   Mostly Cloudy
7:00 PM 50.0 °F - 44.6 °F 82% 30.17 in 15.0 mi North 8.1 mph - N/A   Mostly Cloudy
8:00 PM 48.2 °F - 44.6 °F 87% 30.18 in 15.0 mi North 5.8 mph - N/A   Scattered Clouds
9:00 PM 46 °F - 44 °F 90% 30.20 in 15 mi North 3.5 mph - -   Scattered Clouds
9:00 PM 46.4 °F 45.2 °F 44.6 °F 93% 30.20 in 15.0 mi North 3.5 mph - N/A   Partly Cloudy
10:00 PM 44.6 °F 41.4 °F 42.8 °F 93% 30.21 in 15.0 mi North 5.8 mph - N/A   Partly Cloudy
11:00 PM 44.6 °F - 42.8 °F 93% 30.22 in 15.0 mi Calm Calm - N/A   Clear